Temp
16 16 15 15 14 15 14 14 14 13 13 13 12 12 13 13 14 14 14 14 15 15
14 14 14 15 14 14 14 14 14 14 13 13 12 12 12 13 13 13 13 13 13 14
15 14 14 14 14 14 14 14 14 13 13 13 13 12 12 13 13 12 12 12 13 13
15 14 14 14 14 13 13 13 13 13 14 13 13 13 12 12 13 12 12 12 12 12
14 14 14 14 14 13 13 13 14 14 13 13 13 13 12 12 12 11 11 11 11 11
14 14 14 14 14 13 13 13 13 13 13 13 13 13 12 12 11 11 11 12 12 12
14 14 14 14 15 14 13 13 13 13 13 13 13 12 12 12 11 12 11 12 11 11
15 14 14 14 14 13 13 13 13 13 13 13 13 13 12 12 11 12 11 12 11 10
15 14 14 14 14 13 13 13 13 13 13 13 13 13 13 12 11 12 12 11 11 10
15 15 14 14 14 14 14 13 13 13 13 13 13 13 13 12 11 12 12 11 10 12
15 15 14 14 14 14 14 13 13 13 13 13 13 13 13 12 12 11 12 11 10 10
16 15 15 14 14 14 13 13 13 13 13 13 13 13 13 12 11 11 11 11 11 10
16 15 15 14 14 14 13 14 14 14 13 13 13 12 13 12 12 12 11 11 11 11
16 15 15 14 13 13 13 13 13 13 13 13 13 12 13 12 12 12 12 11 11 11
Height
1551 1553 1551 1550 1547 1546 1545 1544 1540 1538 1536 1534 1532 1530 1528 1526 1525 1523 1520 1518 1516 1514
1548 1547 1548 1546 1544 1544 1541 1541 1539 1535 1533 1531 1530 1528 1524 1523 1521 1518 1515 1512 1510 1507
1546 1545 1543 1542 1541 1539 1538 1537 1535 1532 1531 1529 1527 1525 1522 1520 1517 1514 1510 1507 1504 1501
1543 1542 1540 1539 1538 1537 1535 1534 1532 1530 1527 1526 1524 1522 1519 1517 1515 1511 1507 1503 1499 1494
1540 1538 1537 1536 1536 1534 1532 1531 1529 1527 1525 1523 1521 1518 1516 1513 1510 1506 1502 1497 1492 1486
1536 1536 1534 1533 1532 1531 1529 1527 1526 1524 1522 1520 1517 1514 1511 1509 1505 1501 1497 1491 1483 1475
1533 1532 1531 1530 1529 1528 1526 1524 1522 1520 1518 1515 1512 1509 1506 1504 1501 1496 1491 1485 1475 1467
1530 1528 1527 1526 1525 1524 1522 1520 1518 1516 1514 1512 1509 1506 1501 1499 1496 1491 1486 1479 1471 1462
1526 1525 1524 1523 1522 1520 1519 1516 1514 1512 1510 1507 1505 1500 1497 1495 1492 1487 1481 1475 1467 1460
1521 1521 1520 1519 1518 1517 1515 1513 1510 1508 1506 1503 1500 1496 1493 1490 1487 1482 1478 1471 1465 1457
1517 1516 1516 1515 1514 1513 1511 1508 1506 1504 1501 1499 1496 1492 1489 1485 1482 1478 1474 1469 1463 1456
1513 1512 1512 1511 1511 1509 1506 1504 1502 1500 1496 1495 1492 1488 1484 1481 1478 1474 1471 1466 1460 1454
1508 1508 1507 1507 1505 1504 1502 1500 1498 1497 1494 1491 1487 1484 1480 1476 1473 1470 1467 1462 1457 1452
1502 1502 1500 1500 1500 1499 1497 1496 1495 1493 1490 1486 1484 1480 1476 1473 1470 1467 1462 1459 1453 1448
Wind_Speed
11 6 7 8 8 6 7 8 10 9 10 11 13 13 15 15 16 19 23 26 28 30
8 6 7 8 9 7 9 7 9 11 11 10 11 11 13 14 17 19 21 24 26 29
7 6 7 7 8 8 8 9 12 12 11 10 10 10 12 14 16 17 18 21 25 30
6 6 7 7 8 9 10 10 12 14 14 13 13 12 13 13 15 18 21 24 28 30
7 7 8 9 9 11 12 13 16 17 16 15 15 15 14 16 18 22 27 27 29 34
8 8 8 9 10 11 13 15 16 16 15 15 14 14 15 16 18 21 23 31 33 39
9 9 9 10 12 13 14 16 15 16 15 14 14 14 14 13 16 24 20 32 38 41
11 11 12 13 14 14 15 15 14 14 14 14 15 15 14 15 15 23 23 27 37 36
12 12 13 13 14 15 14 14 13 14 14 14 14 16 17 17 13 19 23 25 27 35
11 11 12 12 13 13 14 15 14 13 13 13 13 17 19 18 13 16 21 23 25 30
12 13 12 12 12 12 14 14 13 13 12 11 14 18 18 20 20 17 18 22 26 31
13 13 13 13 13 13 13 13 13 13 11 13 15 19 20 20 17 19 22 22 24 27
12 13 14 15 14 13 12 11 11 12 13 15 16 16 17 17 16 19 20 23 25 26
14 15 16 15 15 13 13 13 13 14 13 13 13 15 14 14 15 17 20 21 23 26
Wind_Direction
317 297 297 300 302 308 303 305 310 325 324 320 316 307 301 300 291 287 284 281 276 271
293 283 275 290 299 297 306 304 305 324 323 322 323 321 310 306 295 294 295 289 284 277
278 270 285 299 302 295 300 308 321 319 306 304 312 328 333 321 316 308 302 296 286 281
269 272 285 296 296 294 291 301 313 315 314 300 296 301 312 316 324 324 319 313 303 295
263 273 281 289 290 289 286 290 304 309 308 301 292 289 297 307 314 322 322 320 310 297
258 263 280 288 294 296 298 300 301 299 292 301 293 292 286 299 312 325 329 338 329 327
259 271 280 292 300 305 303 304 302 301 292 293 293 298 288 293 314 328 332 339 353 335
264 280 283 291 295 298 298 300 299 303 301 293 292 297 282 299 315 335 336 336 347 343
268 273 277 283 288 298 299 299 298 302 302 298 299 284 301 301 312 346 341 340 341 349
264 268 273 287 291 295 305 303 301 300 299 299 302 300 302 297 296 328 348 355 342 339
263 271 272 282 286 291 301 298 295 297 299 300 311 309 311 302 293 304 332 336 341 347
263 273 275 283 283 289 294 297 297 293 295 302 306 305 308 304 281 292 320 317 328 338
265 269 277 280 284 291 288 299 309 295 294 299 307 305 309 314 299 303 318 325 329 336
262 269 275 279 278 278 280 283 294 301 301 310 306 320 320 324 311 315 316 325 329 340